DABB

Annaba/Rabah Bitat

Airport
ICAO code
DABB
Summary
ICAO Region
AFI
ICAO Territory
Location

Annaba,

Coordinates
36° 49' 20" N , 7° 48' 34" E
Metar
DABB 240630Z 21006KT 9999 FEW020 SCT030 07/06 Q1011

Description

Rabah Bitat Airport, formerly known as Les Salines Airport, and popularly as El Mellah Airport is an international airport located 9 km south of Annaba, a city in Algeria.

Runways

Designator Length Width Surface Rops
5/23 2290 45 ASP Yes/Yes
1/19 3000 45 ASP Yes/Yes

Airport map

Aerial View

SKYbrary Partners:

Safety knowledge contributed by: